AirNav   Everest Fuels
 
 1031 users online  

7S3 Stark's Twin Oaks Airpark
Hillsboro, Oregon, USA

GOING TO HILLSBORO?


FAA INFORMATION EFFECTIVE 25 MARCH 2021

Location

FAA Identifier: 7S3
Lat/Long: 45-25-42.4210N 122-56-31.7650W
45-25.707017N 122-56.529417W
45.4284503,-122.9421569
(estimated)
Elevation: 170 ft. / 52 m (estimated)
Variation: 19E (1985)
From city: 4 miles S of HILLSBORO, OR
Time zone: UTC -7 (UTC -8 during Standard Time)
Zip code: 97123

Airport Operations

Airport use: Open to the public
Activation date: 07/1974
Control tower: no
ARTCC: SEATTLE CENTER
FSS: MC MINNVILLE FLIGHT SERVICE STATION
NOTAMs facility: MMV (NOTAM-D service available)
Attendance: DAWN-DUSK
Pattern altitude: 1200 ft. MSL
Wind indicator: yes
Segmented circle: no
Lights: ACTIVATE LIRL RY 02/20-CTAF; AFT 0000 PPR CALL AMGR 503-628-2817.

Airport Communications

CTAF/UNICOM: 123.05
CLEARANCE DELIVERY: 119.95
WX ASOS at HIO (7 nm N): PHONE 503-615-4314
WX ASOS at UAO (13 nm SE): PHONE 503-678-3011
WX ASOS at MMV (16 nm SW): 135.675 (503-434-9153)
WX ASOS at VUO (17 nm NE): 135.125 (360-696-1280)
WX ASOS at PDX (17 nm NE): PHONE (503) 493-7687

Nearby radio navigation aids

VOR radial/distance  VOR name  Freq  Var
UBGr358/4.8NEWBERG VOR/DME117.4021E
BTGr197/24.2BATTLE GROUND VORTAC116.6021E

 
NDB name  Hdg/Dist  Freq  Var  ID
BANKS144/12.935616EPND .--. -. -..

Airport Services

Fuel available: 100LL
Parking: tiedowns
Airframe service: MAJOR
Powerplant service: MINOR
Bottled oxygen: NONE
Bulk oxygen: NONE

Runway Information

Runway 2/20

Dimensions: 2465 x 48 ft. / 751 x 15 m
Surface: asphalt, in good condition
Runway edge lights: low intensity
LIGHT FIXTURES 30' FROM RWY EDGES.
RUNWAY 2  RUNWAY 20
Traffic pattern: leftleft
Displaced threshold: 100 ft.no
Markings: NSTD, in fair conditionNSTD, in fair condition
Obstructions: 100 ft. tree, 3078 ft. from runway, 28:1 slope to clear
26:1 BASED ON DISPLACED THRESHOLD
10 ft. trees, 201 ft. from runway, 120 ft. left of centerline
20 FT TREES AT 175 FT AND 120 FT LEFT OF CNTRLN. NO SAFETY AREA. ALSO, 10 FT PUB ROAD AT 180 FT XNG CNTRLN.

Airport Ownership and Management from official FAA records

Ownership: Privately-owned
Owner: ROBERT C & BETTY STARK
12405 S.W. RIVER RD
HILLSBORO, OR 97123
Phone 503-522-8952
Manager: ROBERT C. STARK
12405 S.W. RIVER RD
HILLSBORO, OR 97123
Phone 503-628-2817
BOB@TWINOAKSAIRPARK.COM

Airport Operational Statistics

Aircraft based on the field: 113
Single engine airplanes: 107
Multi engine airplanes: 1
Helicopters: 4
Ultralights: 1
    
Aircraft operations: avg 67/day *
74% transient general aviation
26% local general aviation
* for 12-month period ending 05 August 2018

Additional Remarks

RUNWAY ENDS NOT VISIBLE FROM EACH OTHER
FOR CD CTC PORTLAND APCH AT 503-493-7545.

Instrument Procedures

There are no published instrument procedures at 7S3.

Some nearby airports with instrument procedures:

KHIO - Portland-Hillsboro Airport (7 nm N)
KUAO - Aurora State Airport (13 nm SE)
KMMV - Mc Minnville Municipal Airport (16 nm SW)
KVUO - Pearson Field Airport (17 nm NE)
KPDX - Portland International Airport (17 nm NE)
 
Loc | Ops | Rwys | IFR | FBO | Links
Com | Nav | Svcs | Stats | Notes
Area around 7S3 (Stark's Twin Oaks Airpark)
 
Road maps at: MapQuest Bing Google
 
Aerial photo
WARNING: Photo may not be current or correct
Aerial photo of 7S3 (Stark's Twin Oaks Airpark)
Photo taken 19-Sep-2011
looking northeast.

Do you have a better or more recent aerial photo of Stark's Twin Oaks Airpark that you would like to share? If so, please send us your photo.

 
Sectional chart

 
Airport diagram
CAUTION: Diagram may not be current
Diagram of 7S3 (Stark's Twin Oaks Airpark)
 
Airport distance calculator
Flying to Stark's Twin Oaks Airpark? Find the distance to fly.

From to 7S3

Sunrise and sunset
Times for 10-Apr-2021
 Local
(UTC-7)
 Zulu
(UTC)
Morning civil twilight06:0613:06
Sunrise06:3613:36
Sunset19:5002:50
Evening civil twilight20:2103:21

Current date and time
Zulu (UTC)  10-Apr-2021 16:18:07
Local (UTC-7)  10-Apr-2021 09:18:07
 
METAR
KHIO 
7nm N 
101553Z 32003KT 10SM -RA BKN043 OVC050 05/03 A3026 RMK AO2 RAB27 SLP248 P0000 T00500028
KUAO 
13nm SE 
101553Z 22007KT 10SM BKN070 07/04 A3027 RMK AO2 SLP249 T00670044
KMMV 
16nm SW 
101553Z AUTO 26010KT 4SM -RA BR SCT030 BKN039 OVC050 06/04 A3027 RMK AO2 RAB45 SLP250 P0001 T00610039
KVUO 
17nm NE 
101553Z AUTO 30009KT 10SM OVC075 07/01 A3026 RMK AO2 SLP246 T00720006
KPDX 
17nm NE 
101553Z 30010KT 10SM FEW030 SCT050 BKN075 07/01 A3026 RMK AO2 SLP248 T00720011
TAF
KHIO 
7nm N 
101154Z 1012/1112 21009KT P6SM -SHRA SCT030 OVC050 TEMPO 1012/1014 BKN012 OVC022 FM101900 29012KT P6SM -SHRA BKN050 FM110300 31005KT P6SM SCT060
KUAO 
13nm SE 
101130Z 1012/1112 20011G18KT P6SM -RA BKN025 OVC030 FM101400 21012G20KT P6SM -SHRA SCT030 BKN045 FM102200 27011KT P6SM VCSH BKN050 FM110200 35005KT P6SM SCT060
KPDX 
17nm NE 
101130Z 1012/1112 23015G22KT P6SM -RA BKN025 OVC040 FM101300 26013G20KT P6SM -SHRA SCT030 BKN050 FM102300 30010KT P6SM VCSH BKN060 FM110300 32006KT P6SM SCT060
NOTAMs
Click for the latest NOTAMs
NOTAMs are issued by the DoD/FAA and will open in a separate window not controlled by AirNav.

 

 
 

FBO, Fuel Providers, and Aircraft Ground Support

  
 Business Name 
 
 Contact 
 
 Services / Description 
 
Fuel Prices
 
Comments
  
Twin Oaks Airpark 503-451-3480
503-522-8952
[web site]
[email]
Airport management, Aviation fuel, Aircraft parking (ramp or tiedown), Hangars, Hangar leasing / sales, Flight training, Aircraft rental, ...

More info about Twin Oaks Airpark
Phillips 66
100LL
SS $4.65 
 Updated 31-Mar-2021
 
   write
SS=Self service
Update Fuel Prices
 

Would you like to see your business listed on this page?

 If your business provides an interesting product or service to pilots, flight crews, aircraft, or users of the Stark's Twin Oaks Airpark, you should consider listing it here.  To start the listing process, click on the button below
 
Add a business
 

Other Pages about Stark's Twin Oaks Airpark

www.twinoaksairpark.com
 
Update a link
 
Copyright © AirNav, LLC. All rights reserved. Privacy Policy  Contact